Tracking 35048 objects as of 19-Aug-2026
HD Live streaming from Space Station
objects crossing your sky now

STARLINK-2388

Track STARLINK-2388 now!
10-day predictions
STARLINK-2388 is classified as:


NORAD ID: 47807
Int'l Code: 2021-018W
Launch date: March 11, 2021
Source: United States (US)
Launch site: AIR FORCE EASTERN TEST RANGE (AFETR)
Your satellite tracking list
Your tracking list is empty




NASA's NSSDC Master Catalog

Two Line Element Set (TLE):
1 47807U 21018W   26231.01499290  .00002243  00000-0  83985-4 0  9994
2 47807  53.1596 181.3241 0001355  92.2491 267.8666 15.31716407301952
Source of the keplerian elements: AFSPC